EST,Max TemperatureF,Mean TemperatureF,Min TemperatureF,Max Dew PointF,MeanDew PointF,Min DewpointF,Max Humidity, Mean Humidity, Min Humidity, Max Sea Level PressureIn, Mean Sea Level PressureIn, Min Sea Level PressureIn, Max VisibilityMiles, Mean VisibilityMiles, Min VisibilityMiles, Max Wind SpeedMPH, Mean Wind SpeedMPH, Max Gust SpeedMPH,PrecipitationIn, CloudCover, Events, WindDirDegrees
2013-1-1,46,40,35,34,32,27,87,71,57,30.03,29.98,29.91,10,10,10,7,3,,0.00,4,,14
2013-1-2,37,34,30,32,30,21,100,82,64,30.23,30.11,30.00,10,10,10,6,2,,0.00,5,,4
2013-1-3,39,32,24,27,22,19,100,67,49,30.26,30.21,30.16,10,10,10,8,2,,0.00,3,,183
2013-1-4,44,32,19,27,23,19,100,64,43,30.23,30.19,30.13,10,10,10,14,6,22,0.00,0,,204
2013-1-5,48,36,23,32,25,21,93,65,39,30.38,30.27,30.19,10,10,10,10,4,,0.00,1,Rain,157
2013-1-6,51,40,28,34,32,28,100,73,44,30.19,30.12,30.04,10,10,10,12,3,,0.00,3,Rain,212
2013-1-7,44,35,26,34,30,27,100,77,57,30.45,30.37,30.16,10,10,10,10,3,,0.00,3,,344
2013-1-8,51,37,23,36,31,23,100,85,50,30.44,30.40,30.36,10,10,7,12,3,18,0.00,1,,170
2013-1-9,59,42,26,50,39,27,100,85,63,30.40,30.34,30.27,10,10,7,12,3,18,0.00,2,,179
2013-1-10,57,42,28,41,33,28,100,71,38,30.59,30.50,30.40,10,10,10,8,1,,0.00,0,,7
2013-1-11,42,37,32,43,38,32,100,94,70,30.49,30.30,30.11,10,8,2,9,2,,0.03,7,Rain,173
2013-1-12,48,44,41,48,44,41,100,100,100,30.19,30.14,30.11,10,2,0,6,2,,0.00,8,Fog,52
2013-1-13,62,53,44,63,51,45,100,100,94,30.13,30.06,30.00,10,2,0,10,2,,0.01,7,Fog,172
2013-1-14,62,50,37,63,51,36,100,93,72,30.31,30.15,30.00,10,10,5,20,7,25,0.09,7,Rain,8
2013-1-15,39,37,35,39,37,36,100,100,100,30.35,30.26,30.14,10,5,1,10,6,16,1.00,8,Rain,353
2013-1-16,42,38,35,43,39,36,100,100,100,30.15,30.02,29.88,10,7,1,13,4,20,0.19,8,Rain,191
2013-1-17,42,38,33,43,39,34,100,98,81,30.14,30.07,29.98,10,5,2,7,1,,0.22,8,Rain,40
2013-1-18,41,34,28,34,26,19,100,73,42,30.50,30.38,30.11,10,10,7,12,4,22,0.00,0,,253
2013-1-19,51,38,26,32,30,25,100,72,47,30.44,30.25,30.03,10,10,10,15,7,22,0.00,0,,172
2013-1-20,60,46,32,36,27,10,81,54,25,30.08,29.96,29.88,10,10,10,23,9,33,0.00,0,,202
2013-1-21,51,40,28,27,21,10,86,53,29,30.10,29.97,29.78,10,10,10,20,4,26,0.00,0,,213
2013-1-22,32,23,14,12,2,-4,79,40,25,30.29,30.17,29.95,10,10,10,23,10,34,0.00,0,,249
2013-1-23,32,21,10,18,7,1,92,59,29,30.34,30.25,30.13,10,10,5,12,3,20,0.00,4,Snow,225
2013-1-24,28,20,12,21,13,3,100,74,37,30.54,30.33,30.06,10,8,2,17,6,26,0.00,4,Snow,322
2013-1-25,24,17,10,21,15,9,100,83,54,30.52,30.30,30.07,10,10,7,14,3,18,0.00,5,Snow,161
2013-1-26,37,30,23,28,25,21,100,85,65,30.44,30.23,30.07,10,10,4,8,2,,0.00,7,Snow,311
2013-1-27,37,30,23,27,24,21,100,79,56,30.61,30.51,30.44,10,10,7,9,1,,0.00,4,,180
2013-1-28,50,41,32,45,36,27,100,90,76,30.49,30.27,30.10,10,8,3,15,6,23,0.15,6,,176
2013-1-29,73,57,41,55,49,41,100,78,53,30.14,30.07,29.99,10,10,5,12,5,,0.00,1,,167
2013-1-30,71,63,55,66,60,52,100,89,73,29.99,29.69,29.25,10,9,2,24,10,40,1.07,7,Rain,161
2013-1-31,62,45,28,63,29,18,100,61,39,29.93,29.66,29.25,10,10,4,30,16,37,0.24,4,Rain,223